Change the Weather History Date:

Friday, May 10, 2013

  Actual Average Record
Temperature  
Mean Temperature 42 °F -  
Max Temperature 57 °F 50 °F 66 °F (2014)
Min Temperature 30 °F 34 °F 14 °F (1964)
Degree Days  
Heating Degree Days 22    
Moisture  
Dew Point 30 °F    
Average Humidity 60    
Maximum Humidity 100    
Minimum Humidity 37    
Precipitation  
Precipitation 0.00 in - - ()
Sea Level Pressure  
Sea Level Pressure 30.09 in    
Wind  
Wind Speed 5 mph (NNE)    
Max Wind Speed 15 mph    
Max Gust Speed -    
Visibility 10 miles    
Events      
Averages and records for this station are not official NWS values.
T = Trace of Precipitation, MM = Missing Value Source: NWS Daily Summary

Daily Weather History Graph

Daily Weather History Graph

Search for Another Location

Airport or City:

Trip Planner

Search our weather history database for the weather conditions in past years. The results will help you decide how hot, cold, wet, or windy it might be!

Date:

Astronomy

May. 10, 2013 Rise Set
Actual Time 5:34 AM AKDT 10:30 PM AKDT
Civil Twilight 4:32 AM AKDT 11:33 PM AKDT
Nautical Twilight 2:33 AM AKDT 1:28 AM AKDT
Astronomical Twilight Sun does not rise Sun does not rise
Moon 6:03 AM AKDT (5/10) 11:36 PM AKDT (5/10)
Length of Visible Light 19h 00m
Length of Day
16h 56m
New Moon, 1% of the Moon is Illuminated
May 10
New Moon
May 17
First Quarter
May 24
Full
May 31
Last Quarter
Jun 8
New

Hourly Weather History & Observations

Time (AKDT) Temp. Windchill Dew Point Humidity Pressure Visibility Wind Dir Wind Speed Gust Speed Precip Events Conditions
12:53 AM 37.9 °F - 30.9 °F 76% 30.25 in 10.0 mi Calm Calm - N/A   Clear
1:53 AM 36.0 °F - 30.0 °F 79% 30.24 in 10.0 mi Calm Calm - N/A   Clear
2:53 AM 33.1 °F - 30.9 °F 92% 30.23 in 10.0 mi Calm Calm - N/A   Clear
3:53 AM 30.9 °F - 28.9 °F 92% 30.21 in 10.0 mi Calm Calm - N/A   Clear
4:53 AM 30.0 °F - 28.9 °F 96% 30.20 in 10.0 mi Calm Calm - N/A   Clear
5:53 AM 30.9 °F - 30.9 °F 100% 30.19 in 10.0 mi Calm Calm - N/A   Clear
6:53 AM 30.9 °F 27.5 °F 30.0 °F 96% 30.17 in 10.0 mi North 3.5 mph - N/A   Clear
7:53 AM 36.0 °F 33.3 °F 32.0 °F 86% 30.16 in 10.0 mi NNE 3.5 mph - N/A   Clear
8:53 AM 44.1 °F 39.0 °F 30.0 °F 58% 30.16 in 10.0 mi NNE 9.2 mph - N/A   Clear
9:53 AM 48.0 °F - 30.0 °F 50% 30.14 in 10.0 mi Variable 6.9 mph - N/A   Clear
10:53 AM 48.0 °F - 28.9 °F 48% 30.13 in 10.0 mi North 13.8 mph - N/A   Clear
11:53 AM 50.0 °F - 30.0 °F 46% 30.12 in 10.0 mi North 15.0 mph - N/A   Clear
12:53 PM 52.0 °F - 30.0 °F 43% 30.10 in 10.0 mi North 13.8 mph - N/A   Clear
1:53 PM 54.0 °F - 30.0 °F 40% 30.08 in 10.0 mi NNE 15.0 mph - N/A   Partly Cloudy
2:53 PM 54.0 °F - 30.9 °F 41% 30.06 in 10.0 mi North 12.7 mph - N/A   Mostly Cloudy
3:53 PM 55.0 °F - 32.0 °F 42% 30.04 in 10.0 mi North 11.5 mph - N/A   Partly Cloudy
4:53 PM 55.0 °F - 30.0 °F 38% 30.02 in 10.0 mi North 13.8 mph - N/A   Partly Cloudy
5:53 PM 55.9 °F - 32.0 °F 40% 29.99 in 10.0 mi North 12.7 mph - N/A   Partly Cloudy
6:53 PM 55.9 °F - 30.0 °F 37% 29.98 in 10.0 mi NNE 12.7 mph - N/A   Clear
7:53 PM 54.0 °F - 30.0 °F 40% 29.97 in 10.0 mi NNW 11.5 mph - N/A   Clear
8:53 PM 54.0 °F - 30.0 °F 40% 29.96 in 10.0 mi North 8.1 mph - N/A   Partly Cloudy
9:53 PM 50.0 °F - 30.0 °F 46% 29.96 in 10.0 mi NE 5.8 mph - N/A   Partly Cloudy
10:53 PM 45.0 °F 40.1 °F 32.0 °F 60% 29.95 in 10.0 mi NE 9.2 mph - N/A   Mostly Cloudy
11:53 PM 43.0 °F 39.5 °F 30.9 °F 62% 29.94 in 10.0 mi NE 5.8 mph - N/A   Overcast